MFX1920 UZTT-VHHH

Flight info

Callsign MFX1920
Flight time N/A
Altitude 37000
Route TISIB1A TISIB L141 KAMUD/K0865S1130 W186 SADAN DCT POU R473 SIERA
Aircraft B763/H-SDE3FGHIM3RWXY/LB1

Departure

Time 2026-05-08 08:09
Airport Tashkent International Airport (UZTT)

Arrival

Time N/A
Airport Hong Kong International Airport (VHHH)
Time Latitude Longitude Altitude Speed Heading
2026-05-08 06:12 41.26391 69.28175 1424 ft 0 kts 352°
2026-05-08 07:50 41.26395 69.28174 1423 ft 2 kts 353°
2026-05-08 07:50 41.26411 69.28173 1423 ft 2 kts
2026-05-08 07:50 41.26426 69.28178 1423 ft 2 kts 22°
2026-05-08 07:51 41.26442 69.28203 1423 ft 3 kts 64°
2026-05-08 07:51 41.26449 69.28256 1423 ft 8 kts 81°
2026-05-08 07:51 41.26441 69.28363 1423 ft 14 kts 117°
2026-05-08 07:51 41.26352 69.28483 1423 ft 20 kts 138°
2026-05-08 07:52 41.26270 69.28577 1423 ft 9 kts 139°
2026-05-08 07:52 41.26238 69.28616 1423 ft 0 kts 137°
2026-05-08 07:52 41.26236 69.28618 1423 ft 2 kts 137°
2026-05-08 07:53 41.26206 69.28654 1423 ft 8 kts 137°
2026-05-08 07:53 41.26146 69.28728 1423 ft 14 kts 137°
2026-05-08 07:53 41.26088 69.28798 1423 ft 4 kts 137°
2026-05-08 07:53 41.26069 69.28822 1423 ft 3 kts 136°
2026-05-08 07:54 41.26030 69.28869 1423 ft 9 kts 137°
2026-05-08 07:54 41.25974 69.28928 1423 ft 10 kts 153°
2026-05-08 07:54 41.25897 69.28947 1423 ft 11 kts 187°
2026-05-08 07:54 41.25813 69.28909 1423 ft 13 kts 201°
2026-05-08 07:55 41.25735 69.28832 1423 ft 16 kts 248°
2026-05-08 07:55 41.25717 69.28690 1423 ft 14 kts 262°
2026-05-08 07:55 41.25704 69.28574 1423 ft 11 kts 262°
2026-05-08 07:55 41.25695 69.28477 1423 ft 9 kts 263°
2026-05-08 07:56 41.25686 69.28394 1423 ft 8 kts 261°
2026-05-08 07:56 41.25677 69.28305 1422 ft 9 kts 262°
2026-05-08 07:56 41.25667 69.28209 1422 ft 11 kts 262°
2026-05-08 07:56 41.25657 69.28118 1422 ft 8 kts 261°
2026-05-08 07:57 41.25650 69.28057 1422 ft 5 kts 261°
2026-05-08 07:57 41.25644 69.27998 1422 ft 8 kts 262°
2026-05-08 07:57 41.25634 69.27904 1422 ft 10 kts 261°
2026-05-08 07:57 41.25622 69.27799 1422 ft 12 kts 261°
2026-05-08 07:58 41.25608 69.27668 1422 ft 15 kts 262°
2026-05-08 07:58 41.25593 69.27512 1422 ft 18 kts 263°
2026-05-08 07:58 41.25573 69.27331 1422 ft 20 kts 260°
2026-05-08 07:58 41.25547 69.27127 1422 ft 25 kts 261°
2026-05-08 07:59 41.25516 69.26854 1421 ft 32 kts 261°
2026-05-08 07:59 41.25496 69.26636 1421 ft 16 kts 283°
2026-05-08 07:59 41.25545 69.26568 1421 ft 4 kts 327°
2026-05-08 07:59 41.25548 69.26566 1421 ft 0 kts 327°
2026-05-08 08:00 41.25559 69.26556 1421 ft 2 kts 327°
2026-05-08 08:01 41.25573 69.26544 1421 ft 0 kts 328°
2026-05-08 08:07 41.25591 69.26530 1421 ft 3 kts 328°
2026-05-08 08:07 41.25610 69.26514 1421 ft 2 kts 328°
2026-05-08 08:07 41.25629 69.26503 1421 ft 3 kts 346°
2026-05-08 08:08 41.25655 69.26510 1421 ft 4 kts 33°
2026-05-08 08:08 41.25674 69.26562 1421 ft 8 kts 78°
2026-05-08 08:08 41.25690 69.26691 1421 ft 28 kts 82°
2026-05-08 08:08 41.25744 69.27193 1422 ft 85 kts 82°
2026-05-08 08:09 41.25864 69.28271 1423 ft 146 kts 82°
2026-05-08 08:09 41.26028 69.29833 1512 ft 190 kts 82°
2026-05-08 08:09 41.26239 69.31657 2038 ft 207 kts 81°
2026-05-08 08:09 41.26436 69.33561 2763 ft 208 kts 82°
2026-05-08 08:10 41.26630 69.35500 3032 ft 215 kts 82°
2026-05-08 08:10 41.26844 69.37501 3257 ft 225 kts 82°
2026-05-08 08:10 41.27074 69.39622 3618 ft 231 kts 81°
2026-05-08 08:10 41.27313 69.41808 3798 ft 246 kts 81°
2026-05-08 08:11 41.27566 69.44100 4234 ft 249 kts 82°
2026-05-08 08:11 41.27819 69.46370 4737 ft 251 kts 82°
2026-05-08 08:11 41.28076 69.48700 5201 ft 254 kts 81°
2026-05-08 08:11 41.28127 69.51053 5684 ft 256 kts 105°
2026-05-08 08:12 41.27339 69.53148 6110 ft 257 kts 136°
2026-05-08 08:12 41.25819 69.54431 6579 ft 257 kts 166°
2026-05-08 08:12 41.24072 69.54905 7090 ft 256 kts 170°
2026-05-08 08:12 41.22289 69.55330 7574 ft 259 kts 173°
2026-05-08 08:13 41.20446 69.55180 7756 ft 272 kts 201°
2026-05-08 08:13 41.18828 69.53805 8081 ft 278 kts 231°
2026-05-08 08:13 41.17934 69.51577 8634 ft 276 kts 259°
2026-05-08 08:13 41.17710 69.49050 9172 ft 277 kts 264°
2026-05-08 08:14 41.17491 69.46486 9779 ft 278 kts 263°
2026-05-08 08:14 41.17241 69.43948 10336 ft 280 kts 262°
2026-05-08 08:14 41.16973 69.41363 10931 ft 281 kts 262°
2026-05-08 08:14 41.16696 69.38784 11470 ft 283 kts 262°
2026-05-08 08:15 41.16412 69.36172 12001 ft 285 kts 261°
2026-05-08 08:15 41.15814 69.33621 12191 ft 300 kts 240°
2026-05-08 08:15 41.14484 69.31348 12329 ft 319 kts 221°
2026-05-08 08:15 41.12577 69.29695 12485 ft 337 kts 204°
2026-05-08 08:16 41.10261 69.28841 12605 ft 357 kts 187°
2026-05-08 08:16 41.07716 69.28947 12987 ft 369 kts 169°
2026-05-08 08:16 41.05249 69.30057 13612 ft 373 kts 153°
2026-05-08 08:16 41.03108 69.32030 14168 ft 379 kts 137°
2026-05-08 08:17 41.01415 69.34757 14682 ft 385 kts 121°
2026-05-08 08:17 41.00346 69.38008 15256 ft 388 kts 105°
2026-05-08 08:17 40.99963 69.41574 15791 ft 393 kts 89°
2026-05-08 08:17 41.00309 69.45180 16281 ft 396 kts 73°
2026-05-08 08:18 41.01327 69.48634 16758 ft 400 kts 64°
2026-05-08 08:18 41.02502 69.52020 17302 ft 403 kts 65°
2026-05-08 08:18 41.03665 69.55405 17788 ft 407 kts 65°
2026-05-08 08:18 41.04843 69.58840 18333 ft 410 kts 65°
2026-05-08 08:19 41.06026 69.62289 18842 ft 412 kts 65°
2026-05-08 08:19 41.07231 69.65808 19358 ft 415 kts 66°
2026-05-08 08:19 41.08446 69.69361 19833 ft 419 kts 66°
2026-05-08 08:19 41.09670 69.72945 20313 ft 421 kts 66°
2026-05-08 08:20 41.10880 69.76510 20802 ft 423 kts 68°
2026-05-08 08:20 41.11823 69.80238 21171 ft 427 kts 78°
2026-05-08 08:20 41.12232 69.84203 21669 ft 427 kts 89°
2026-05-08 08:20 41.12238 69.88178 22104 ft 429 kts 92°
2026-05-08 08:21 41.12106 69.92145 22512 ft 431 kts 94°
2026-05-08 08:21 41.11894 69.96166 22945 ft 433 kts 95°
2026-05-08 08:21 41.11642 70.00188 23343 ft 436 kts 96°
2026-05-08 08:21 41.11361 70.04224 23690 ft 439 kts 96°
2026-05-08 08:22 41.11057 70.08347 24111 ft 441 kts 96°
2026-05-08 08:22 41.10749 70.12403 24442 ft 444 kts 96°
2026-05-08 08:22 41.10429 70.16532 24739 ft 447 kts 96°
2026-05-08 08:22 41.10105 70.20670 25110 ft 449 kts 96°
2026-05-08 08:23 41.09949 70.24848 25352 ft 453 kts 87°
2026-05-08 08:23 41.10224 70.29046 25683 ft 454 kts 84°
2026-05-08 08:23 41.10518 70.33243 25973 ft 456 kts 84°
2026-05-08 08:23 41.10823 70.37445 26266 ft 458 kts 84°
2026-05-08 08:24 41.11127 70.41676 26569 ft 460 kts 84°
2026-05-08 08:24 41.11438 70.45969 26832 ft 463 kts 84°
2026-05-08 08:24 41.11747 70.50264 27141 ft 464 kts 84°
2026-05-08 08:24 41.12054 70.54547 27409 ft 467 kts 84°
2026-05-08 08:25 41.12361 70.58848 27693 ft 468 kts 84°
2026-05-08 08:25 41.12669 70.63190 27912 ft 472 kts 84°
2026-05-08 08:25 41.12976 70.67527 28212 ft 472 kts 85°
2026-05-08 08:25 41.13283 70.71917 28452 ft 474 kts 85°
2026-05-08 08:26 41.13583 70.76202 28670 ft 477 kts 85°
2026-05-08 08:26 41.13899 70.80767 28940 ft 478 kts 85°
2026-05-08 08:26 41.14205 70.85201 29232 ft 478 kts 85°
2026-05-08 08:26 41.14507 70.89591 29431 ft 481 kts 85°
2026-05-08 08:27 41.14809 70.94036 29669 ft 482 kts 85°
2026-05-08 08:27 41.15112 70.98487 29815 ft 484 kts 85°
2026-05-08 08:27 41.15415 71.02982 30038 ft 486 kts 85°
2026-05-08 08:27 41.15714 71.07455 30238 ft 487 kts 85°
2026-05-08 08:28 41.16016 71.12009 30447 ft 488 kts 84°
2026-05-08 08:28 41.16316 71.16525 30630 ft 490 kts 84°
2026-05-08 08:28 41.16615 71.21075 30797 ft 492 kts 84°
2026-05-08 08:28 41.16913 71.25593 30943 ft 493 kts 85°
2026-05-08 08:29 41.17207 71.30166 31104 ft 495 kts 84°
2026-05-08 08:29 41.17505 71.34766 31282 ft 496 kts 84°
2026-05-08 08:29 41.17800 71.39349 31487 ft 496 kts 84°
2026-05-08 08:29 41.18093 71.43950 31722 ft 496 kts 84°
2026-05-08 08:30 41.18385 71.48540 31953 ft 496 kts 84°
2026-05-08 08:30 41.18677 71.53177 32192 ft 495 kts 84°
2026-05-08 08:30 41.19250 71.62368 32635 ft 494 kts 84°
2026-05-08 08:31 41.19534 71.66950 32868 ft 493 kts 84°
2026-05-08 08:31 41.19814 71.71518 33051 ft 493 kts 84°
2026-05-08 08:31 41.20094 71.76101 33260 ft 492 kts 84°
2026-05-08 08:31 41.20371 71.80694 33385 ft 493 kts 84°
2026-05-08 08:32 41.20642 71.85220 33551 ft 493 kts 84°
2026-05-08 08:32 41.20915 71.89822 33744 ft 492 kts 84°
2026-05-08 08:32 41.21182 71.94347 33943 ft 491 kts 84°
2026-05-08 08:32 41.21450 71.98920 34096 ft 491 kts 84°
2026-05-08 08:33 41.21716 72.03490 34243 ft 491 kts 84°
2026-05-08 08:33 41.21976 72.08001 34415 ft 490 kts 84°
2026-05-08 08:33 41.22238 72.12563 34541 ft 490 kts 84°
2026-05-08 08:33 41.22500 72.17159 34705 ft 489 kts 84°
2026-05-08 08:34 41.22756 72.21674 34817 ft 489 kts 84°
2026-05-08 08:34 41.23013 72.26175 34951 ft 489 kts 84°
2026-05-08 08:34 41.23272 72.30733 35090 ft 488 kts 84°
2026-05-08 08:34 41.23525 72.35220 35059 ft 487 kts 84°
2026-05-08 08:35 41.24028 72.44247 35218 ft 488 kts 84°
2026-05-08 08:35 41.24279 72.48790 35337 ft 487 kts 84°
2026-05-08 08:35 41.24526 72.53279 35402 ft 488 kts 83°
2026-05-08 08:36 41.25013 72.62319 35579 ft 487 kts 83°
2026-05-08 08:36 41.25487 72.71320 35737 ft 487 kts 84°
2026-05-08 08:37 41.25956 72.80361 35872 ft 487 kts 84°
2026-05-08 08:37 41.26416 72.89372 36030 ft 487 kts 84°
2026-05-08 08:38 41.26870 72.98398 36233 ft 485 kts 84°
2026-05-08 08:38 41.27315 73.07385 36350 ft 486 kts 84°
2026-05-08 08:39 41.27754 73.16395 36499 ft 485 kts 84°
2026-05-08 08:39 41.28185 73.25401 36553 ft 486 kts 84°
2026-05-08 08:40 41.28611 73.34430 36685 ft 486 kts 84°
2026-05-08 08:40 41.29028 73.43421 36758 ft 487 kts 84°
2026-05-08 08:41 41.29440 73.52473 36909 ft 486 kts 84°
2026-05-08 08:41 41.29843 73.61483 37036 ft 485 kts 84°
2026-05-08 08:42 41.30241 73.70530 37117 ft 485 kts 85°
2026-05-08 08:42 41.30630 73.79526 37203 ft 485 kts 85°
2026-05-08 08:43 41.31012 73.88552 37259 ft 485 kts 85°
2026-05-08 08:43 41.31385 73.97486 37345 ft 484 kts 85°
2026-05-08 08:44 41.31942 74.06461 37410 ft 483 kts 82°
2026-05-08 08:44 41.32589 74.15353 37440 ft 484 kts 82°
2026-05-08 08:45 41.33233 74.24344 37537 ft 483 kts 82°
2026-05-08 08:45 41.33861 74.33217 37542 ft 481 kts 83°
2026-05-08 08:46 41.34479 74.42067 37546 ft 479 kts 83°
2026-05-08 08:46 41.35093 74.50942 37556 ft 478 kts 83°
2026-05-08 08:47 41.35703 74.59882 37564 ft 476 kts 83°
2026-05-08 08:47 41.36297 74.68670 37569 ft 475 kts 83°
2026-05-08 08:48 41.36882 74.77429 37564 ft 473 kts 83°
2026-05-08 08:48 41.37458 74.86146 37566 ft 472 kts 83°
2026-05-08 08:49 41.38027 74.94868 37563 ft 470 kts 83°
2026-05-08 08:49 41.38589 75.03597 37566 ft 469 kts 83°
2026-05-08 08:50 41.39143 75.12299 37564 ft 468 kts 83°
2026-05-08 08:50 41.39686 75.20927 37570 ft 467 kts 83°
2026-05-08 08:51 41.40225 75.29588 37571 ft 466 kts 83°
2026-05-08 08:51 41.40756 75.38237 37574 ft 465 kts 83°
2026-05-08 08:52 41.41283 75.46917 37587 ft 464 kts 83°
2026-05-08 08:52 41.41799 75.55537 37600 ft 463 kts 83°
2026-05-08 08:53 41.42306 75.64104 37607 ft 463 kts 83°
2026-05-08 08:53 41.42808 75.72704 37601 ft 462 kts 84°
2026-05-08 08:54 41.43303 75.81257 37601 ft 461 kts 84°
2026-05-08 08:54 41.43792 75.89833 37602 ft 461 kts 84°
2026-05-08 08:55 41.44275 75.98402 37604 ft 460 kts 84°
2026-05-08 08:55 41.44748 76.06924 37601 ft 459 kts 84°
2026-05-08 08:56 41.45218 76.15499 37598 ft 459 kts 84°
2026-05-08 08:56 41.45677 76.23994 37598 ft 458 kts 84°
2026-05-08 08:57 41.46130 76.32491 37595 ft 458 kts 84°
2026-05-08 08:57 41.46578 76.41010 37597 ft 458 kts 84°
2026-05-08 08:58 41.47021 76.49551 37608 ft 457 kts 84°
2026-05-08 08:58 41.47454 76.58026 37608 ft 457 kts 84°
2026-05-08 08:59 41.47880 76.66477 37603 ft 456 kts 84°
2026-05-08 08:59 41.48300 76.74960 37600 ft 456 kts 84°
2026-05-08 09:00 41.48710 76.83343 37622 ft 456 kts 84°
2026-05-08 09:00 41.49120 76.91853 37625 ft 455 kts 84°
2026-05-08 09:01 41.49521 77.00326 37626 ft 455 kts 84°
2026-05-08 09:01 41.49918 77.08823 37614 ft 455 kts 84°
2026-05-08 09:02 41.50306 77.17274 37613 ft 455 kts 84°
2026-05-08 09:02 41.50690 77.25779 37615 ft 455 kts 84°
2026-05-08 09:03 41.51065 77.34232 37609 ft 454 kts 84°
2026-05-08 09:03 41.51434 77.42650 37622 ft 454 kts 84°
2026-05-08 09:04 41.51797 77.51114 37633 ft 454 kts 84°
2026-05-08 09:04 41.52153 77.59552 37639 ft 454 kts 84°
2026-05-08 09:05 41.52505 77.68027 37640 ft 454 kts 85°
2026-05-08 09:05 41.52848 77.76451 37634 ft 454 kts 85°
2026-05-08 09:06 41.53186 77.84879 37642 ft 454 kts 85°
2026-05-08 09:06 41.53518 77.93340 37644 ft 454 kts 85°
2026-05-08 09:07 41.53841 78.01728 37652 ft 453 kts 85°
2026-05-08 09:07 41.54160 78.10148 37643 ft 453 kts 84°
2026-05-08 09:08 41.54475 78.18657 37642 ft 453 kts 84°
2026-05-08 09:08 41.54781 78.27064 37637 ft 453 kts 85°
2026-05-08 09:09 41.55083 78.35561 37632 ft 453 kts 84°
2026-05-08 09:09 41.55378 78.43991 37637 ft 452 kts 85°
2026-05-08 09:10 41.55665 78.52429 37615 ft 452 kts 84°
2026-05-08 09:10 41.55946 78.60828 37624 ft 452 kts 84°
2026-05-08 09:11 41.56221 78.69258 37600 ft 451 kts 85°
2026-05-08 09:11 41.56490 78.77658 37602 ft 451 kts 85°
2026-05-08 09:12 41.55945 78.86015 37610 ft 454 kts 101°
2026-05-08 09:12 41.54445 78.94190 37575 ft 454 kts 102°
2026-05-08 09:13 41.52859 79.02409 37570 ft 454 kts 102°
2026-05-08 09:13 41.51227 79.10679 37520 ft 455 kts 102°
2026-05-08 09:14 41.49590 79.18884 37481 ft 455 kts 102°
2026-05-08 09:14 41.47942 79.27092 37482 ft 455 kts 102°
2026-05-08 09:15 41.46291 79.35275 37461 ft 455 kts 103°
2026-05-08 09:15 41.44630 79.43470 37454 ft 455 kts 102°
2026-05-08 09:16 41.42957 79.51695 37387 ft 456 kts 102°
2026-05-08 09:16 41.41279 79.59913 37368 ft 456 kts 102°
2026-05-08 09:17 41.39609 79.68057 37377 ft 455 kts 103°
2026-05-08 09:17 41.37925 79.76238 37323 ft 456 kts 103°
2026-05-08 09:18 41.36250 79.84341 37346 ft 455 kts 103°
2026-05-08 09:18 41.34549 79.92533 37376 ft 454 kts 103°
2026-05-08 09:19 41.33694 79.96645 37266 ft 456 kts 103°
2026-05-08 09:19 41.32846 80.00710 37332 ft 455 kts 103°
2026-05-08 09:19 41.31148 80.08828 37360 ft 454 kts 103°
2026-05-08 09:20 41.29442 80.16954 37315 ft 454 kts 103°
2026-05-08 09:20 41.27721 80.25124 37268 ft 455 kts 103°
2026-05-08 09:21 41.25994 80.33282 37211 ft 456 kts 103°
2026-05-08 09:23 41.19867 80.61792 37183 ft 456 kts 103°
2026-05-08 09:23 41.18117 80.69869 37182 ft 456 kts 104°
2026-05-08 09:24 41.16346 80.78011 37193 ft 455 kts 104°
2026-05-08 09:24 41.14584 80.86076 37137 ft 456 kts 104°
2026-05-08 09:25 41.12809 80.94177 37111 ft 457 kts 104°
2026-05-08 09:25 41.11029 81.02268 37119 ft 456 kts 104°
2026-05-08 09:26 41.09235 81.10393 37093 ft 457 kts 104°
2026-05-08 09:26 41.07438 81.18499 37105 ft 456 kts 104°
2026-05-08 09:27 41.05646 81.26556 37106 ft 456 kts 104°
2026-05-08 09:27 41.03840 81.34639 37083 ft 457 kts 104°
2026-05-08 09:28 41.02013 81.42794 37063 ft 457 kts 104°
2026-05-08 09:28 41.00205 81.50835 37059 ft 457 kts 104°
2026-05-08 09:29 40.98383 81.58905 37062 ft 457 kts 104°
2026-05-08 09:29 40.96561 81.67015 37060 ft 457 kts 103°
2026-05-08 09:30 40.95021 81.75201 37067 ft 456 kts 102°
2026-05-08 09:30 40.93475 81.83366 37057 ft 456 kts 102°
2026-05-08 09:31 40.91925 81.91516 37050 ft 456 kts 102°
2026-05-08 09:31 40.90366 81.99673 37056 ft 456 kts 102°
2026-05-08 09:32 40.88800 82.07834 37056 ft 456 kts 102°
2026-05-08 09:32 40.87237 82.15945 37058 ft 456 kts 102°
2026-05-08 09:33 40.85651 82.24137 37066 ft 456 kts 102°
2026-05-08 09:33 40.84078 82.32233 37069 ft 456 kts 102°
2026-05-08 09:34 40.82480 82.40421 37068 ft 455 kts 102°
2026-05-08 09:34 40.80892 82.48528 37065 ft 455 kts 102°
2026-05-08 09:35 40.79299 82.56625 37072 ft 455 kts 102°
2026-05-08 09:35 40.77700 82.64717 37065 ft 455 kts 102°
2026-05-08 09:36 40.76094 82.72819 37069 ft 455 kts 103°
2026-05-08 09:36 40.74468 82.80988 37064 ft 455 kts 103°
2026-05-08 09:37 40.72852 82.89070 37067 ft 455 kts 103°
2026-05-08 09:37 40.71219 82.97206 37063 ft 455 kts 103°
2026-05-08 09:38 40.69590 83.05290 37059 ft 455 kts 103°
2026-05-08 09:38 40.67948 83.13406 37058 ft 455 kts 103°
2026-05-08 09:39 40.66313 83.21455 37054 ft 455 kts 103°
2026-05-08 09:39 40.64655 83.29589 37070 ft 454 kts 103°
2026-05-08 09:40 40.63012 83.37617 37067 ft 454 kts 103°
2026-05-08 09:40 40.61356 83.45670 37067 ft 454 kts 103°
2026-05-08 09:41 40.59701 83.53696 37074 ft 454 kts 103°
2026-05-08 09:41 40.58032 83.61755 37078 ft 454 kts 103°
2026-05-08 09:42 40.56355 83.69821 37067 ft 454 kts 103°
2026-05-08 09:42 40.54672 83.77888 37068 ft 454 kts 103°
2026-05-08 09:43 40.52998 83.85879 37070 ft 454 kts 103°
2026-05-08 09:43 40.51309 83.93934 37075 ft 454 kts 103°
2026-05-08 09:44 40.49691 84.01950 37058 ft 454 kts 103°
2026-05-08 09:44 40.48056 84.10012 37054 ft 454 kts 103°
2026-05-08 09:45 40.46420 84.18050 37061 ft 454 kts 103°
2026-05-08 09:45 40.44780 84.26076 37062 ft 454 kts 103°
2026-05-08 09:46 40.43142 84.34057 37066 ft 454 kts 103°
2026-05-08 09:46 40.41495 84.42052 37058 ft 454 kts 103°
2026-05-08 09:47 40.39836 84.50075 37063 ft 454 kts 103°
2026-05-08 09:47 40.38173 84.58089 37059 ft 454 kts 103°
2026-05-08 09:48 40.36509 84.66075 37065 ft 454 kts 103°
2026-05-08 09:48 40.34827 84.74119 37066 ft 454 kts 103°
2026-05-08 09:49 40.33145 84.82127 37063 ft 454 kts 104°
2026-05-08 09:49 40.31448 84.90179 37061 ft 454 kts 104°
2026-05-08 09:50 40.29757 84.98175 37052 ft 455 kts 104°
2026-05-08 09:50 40.28058 85.06177 37057 ft 454 kts 104°
2026-05-08 09:51 40.26360 85.14146 37060 ft 454 kts 103°
2026-05-08 09:51 40.24643 85.22171 37061 ft 454 kts 104°
2026-05-08 09:52 40.22937 85.30113 37064 ft 455 kts 103°
2026-05-08 09:52 40.21212 85.38120 37065 ft 454 kts 104°
2026-05-08 09:53 40.19492 85.46069 37067 ft 454 kts 103°
2026-05-08 09:53 40.17763 85.54036 37066 ft 455 kts 104°
2026-05-08 09:54 40.16019 85.62038 37061 ft 455 kts 104°
2026-05-08 09:54 40.14284 85.69971 37058 ft 455 kts 104°
2026-05-08 09:55 40.12530 85.77963 37054 ft 455 kts 104°
2026-05-08 09:55 40.10776 85.85924 37064 ft 454 kts 104°
2026-05-08 09:56 40.09023 85.93852 37055 ft 455 kts 104°
2026-05-08 09:56 40.07204 86.01778 37065 ft 455 kts 108°
2026-05-08 09:57 40.04012 86.13454 37059 ft 455 kts 108°
2026-05-08 09:57 40.01886 86.21249 37070 ft 455 kts 108°
2026-05-08 09:58 39.99755 86.29041 37071 ft 455 kts 108°
2026-05-08 09:58 39.97620 86.36827 37061 ft 455 kts 107°
2026-05-08 09:59 39.95483 86.44599 37064 ft 455 kts 108°
2026-05-08 09:59 39.93342 86.52363 37063 ft 455 kts 108°
2026-05-08 10:00 39.91200 86.60105 37075 ft 454 kts 108°
2026-05-08 10:00 39.89048 86.67862 37060 ft 455 kts 108°
2026-05-08 10:01 39.86891 86.75612 37053 ft 455 kts 108°
2026-05-08 10:01 39.84737 86.83326 37056 ft 454 kts 108°
2026-05-08 10:02 39.82553 86.91128 37056 ft 454 kts 108°
2026-05-08 10:02 39.80380 86.98866 37063 ft 455 kts 108°
2026-05-08 10:03 39.78209 87.06571 37068 ft 455 kts 108°
2026-05-08 10:03 39.76020 87.14320 37059 ft 455 kts 108°
2026-05-08 10:04 39.73827 87.22057 37053 ft 455 kts 108°
2026-05-08 10:04 39.71622 87.29815 37059 ft 455 kts 108°
2026-05-08 10:05 39.69424 87.37523 37058 ft 455 kts 108°
2026-05-08 10:05 39.67212 87.45264 37056 ft 455 kts 108°
2026-05-08 10:06 39.65055 87.52787 37055 ft 455 kts 108°
2026-05-08 10:06 39.62788 87.60666 37054 ft 455 kts 108°
2026-05-08 10:07 39.60561 87.68389 37052 ft 455 kts 109°
2026-05-08 10:07 39.58329 87.76102 37061 ft 455 kts 109°
2026-05-08 10:08 39.56085 87.83836 37057 ft 456 kts 109°
2026-05-08 10:08 39.53860 87.91481 37050 ft 456 kts 109°
2026-05-08 10:09 39.51593 87.99251 37045 ft 456 kts 109°
2026-05-08 10:09 39.49339 88.06951 37044 ft 456 kts 109°
2026-05-08 10:10 39.47074 88.14668 37048 ft 456 kts 109°
2026-05-08 10:10 39.44799 88.22395 37058 ft 456 kts 109°
2026-05-08 10:11 39.42537 88.30056 37056 ft 456 kts 109°
2026-05-08 10:11 39.40229 88.37850 37065 ft 456 kts 109°
2026-05-08 10:12 39.37938 88.45564 37062 ft 457 kts 109°
2026-05-08 10:12 39.35656 88.53228 37093 ft 456 kts 109°
2026-05-08 10:13 39.33361 88.60913 37112 ft 456 kts 109°
2026-05-08 10:13 39.31055 88.68610 37116 ft 456 kts 110°
2026-05-08 10:14 39.28758 88.76257 37128 ft 456 kts 110°
2026-05-08 10:14 39.26441 88.83950 37126 ft 456 kts 110°
2026-05-08 10:15 39.24134 88.91585 37139 ft 456 kts 110°
2026-05-08 10:15 39.21792 88.99317 37137 ft 457 kts 110°
2026-05-08 10:16 39.19465 89.06979 37179 ft 456 kts 110°
2026-05-08 10:16 39.17126 89.14656 37199 ft 456 kts 110°
2026-05-08 10:17 39.14784 89.22319 37241 ft 455 kts 110°